Location: Unspecified
(38.7273°N, 77.0677°W)
Time: 00:20:13
(UTC-04:00)

ISS - Pass Details

Date: 30 June 2021
Orbit: 419 x 421 km, 51.6° (Epoch: 03 August)

Event Time Altitude Azimuth Distance (km) Brightness Sun altitude
Exits shadow 05:15:08 - 276° (W) 2,251 -0.5 -6.0°
Reaches altitude 10° 05:17:28 10° 297° (WNW) 1,500 -1.2 -5.6°
Maximum altitude 05:19:43 17° 339° (NNW) 1,164 -1.3 -5.3°
Drops below altitude 10° 05:21:59 10° 21° (NNE) 1,502 0.0 -4.9°
Sets 05:24:38 0° 43° (NE) 2,368 2.2 -4.5°
